Location: Jetmore
(38.0845°N, 99.8935°W)
Time: 18:17:34
(UTC+00:00)

Nauka - Pass Details

Date: 21 September 2021
Orbit: 417 x 423 km, 51.6° (Epoch: 17 October)

Event Time Altitude Azimuth Distance (km) Brightness Sun altitude
Rises 00:53:54 0° 245° (WSW) 2,349 ? -3.7°
Reaches altitude 10° 00:56:03 10° 252° (WSW) 1,489 ? -4.2°
Maximum altitude 00:59:15 42° 325° (NW) 604 ? -4.8°
Drops below altitude 10° 01:02:28 10° 39° (NE) 1,499 ? -5.4°
Enters shadow 01:05:05 -2° 47° (NE) 2,542 ? -5.9°
